Previsão horária em Abadszalok

Hoje, 14 Abril, Quarta-feira

Tempo Temperatura Precipitação Vento Pressão Humidade
00:00 +1°C° 0.3 mm 4 m/s 755 mmHg 97%
01:00 +1°C° 0.3 mm 4 m/s 754 mmHg 97%
02:00 +1°C° 0.1 mm 4 m/s 754 mmHg 97%
03:00 +1°C° 0.1 mm 4 m/s 754 mmHg 96%
04:00 +1°C° 0.1 mm 4 m/s 754 mmHg 96%
05:00 +1°C° 0.1 mm 4 m/s 755 mmHg 95%
06:00 +1°C° 0.1 mm 4 m/s 755 mmHg 95%
07:00 +1°C° 0.1 mm 4 m/s 755 mmHg 94%
08:00 +3°C° 0.1 mm 4 m/s 755 mmHg 89%
09:00 +4°C° 0.1 mm 4 m/s 755 mmHg 83%
10:00 +3°C° 0.1 mm 5 m/s 756 mmHg 77%
11:00 +5°C° 0.1 mm 4 m/s 756 mmHg 75%
12:00 +5°C° 0.1 mm 4 m/s 756 mmHg 74%
13:00 +7°C° 0.1 mm 3 m/s 756 mmHg 72%
14:00 +7°C° 0.2 mm 3 m/s 756 mmHg 72%
15:00 +5°C° 0.2 mm 3 m/s 756 mmHg 72%
16:00 +6°C° 0.2 mm 2 m/s 756 mmHg 73%
17:00 +5°C° 0.2 mm 2 m/s 756 mmHg 75%
18:00 +6°C° 0.2 mm 1 m/s 757 mmHg 78%
19:00 +5°C° 0.2 mm 1 m/s 757 mmHg 81%
20:00 +4°C° 0.1 mm 1 m/s 757 mmHg 83%
21:00 +3°C° 0.1 mm 2 m/s 757 mmHg 86%
22:00 +3°C° 0.1 mm 2 m/s 757 mmHg 88%
23:00 +1°C° 0.2 mm 3 m/s 757 mmHg 95%

Amanhã, 15 Abril, Quinta-feira

Tempo Temperatura Precipitação Vento Pressão Humidade
00:00 +1°C° 0.2 mm 3 m/s 757 mmHg 96%
01:00 +1°C° 0.2 mm 3 m/s 757 mmHg 96%
02:00 +1°C° 0 mm 3 m/s 757 mmHg 95%
03:00 +2°C° 0 mm 2 m/s 757 mmHg 95%
04:00 +2°C° 0 mm 2 m/s 756 mmHg 94%
05:00 +2°C° 0 mm 3 m/s 756 mmHg 91%
06:00 +2°C° 0 mm 3 m/s 757 mmHg 88%
07:00 +3°C° 0 mm 3 m/s 757 mmHg 86%
08:00 +4°C° 0 mm 3 m/s 757 mmHg 80%
09:00 +5°C° 0 mm 3 m/s 757 mmHg 75%
10:00 +5°C° 0 mm 3 m/s 757 mmHg 69%
11:00 +4°C° 0.3 mm 3 m/s 756 mmHg 81%
12:00 +7°C° 0.3 mm 3 m/s 756 mmHg 69%
13:00 +9°C° 0.3 mm 3 m/s 756 mmHg 56%
14:00 +9°C° 0.2 mm 3 m/s 756 mmHg 57%
15:00 +8°C° 0.2 mm 4 m/s 756 mmHg 58%
16:00 +8°C° 0.2 mm 4 m/s 756 mmHg 59%
17:00 +7°C° 0.1 mm 4 m/s 756 mmHg 65%
18:00 +5°C° 0.1 mm 3 m/s 756 mmHg 71%
19:00 +4°C° 0.1 mm 3 m/s 756 mmHg 77%
20:00 +3°C° 0 mm 3 m/s 756 mmHg 80%
21:00 +2°C° 0 mm 3 m/s 756 mmHg 82%
22:00 +2°C° 0 mm 3 m/s 756 mmHg 85%
23:00 +1°C° 0 mm 3 m/s 756 mmHg 87%

Depois de amanhã, 16 Abril, Sexta-feira

Tempo Temperatura Precipitação Vento Pressão Humidade
00:00 +2°C° 0 mm 2 m/s 756 mmHg 90%
01:00 +2°C° 0 mm 2 m/s 757 mmHg 92%
02:00 +2°C° 0 mm 2 m/s 757 mmHg 91%
03:00 +2°C° 0 mm 2 m/s 757 mmHg 91%
04:00 +3°C° 0 mm 2 m/s 757 mmHg 91%
05:00 +3°C° 0 mm 2 m/s 757 mmHg 87%
06:00 +4°C° 0 mm 2 m/s 757 mmHg 84%
07:00 +4°C° 0 mm 2 m/s 757 mmHg 80%
08:00 +6°C° 0 mm 2 m/s 758 mmHg 74%
09:00 +7°C° 0 mm 2 m/s 758 mmHg 68%
10:00 +8°C° 0 mm 2 m/s 758 mmHg 62%
11:00 +9°C° 0 mm 3 m/s 758 mmHg 58%
12:00 +10°C° 0 mm 3 m/s 757 mmHg 55%
13:00 +11°C° 0 mm 3 m/s 757 mmHg 51%
14:00 +11°C° 0 mm 3 m/s 757 mmHg 51%
15:00 +11°C° 0 mm 3 m/s 757 mmHg 50%
16:00 +11°C° 0 mm 3 m/s 756 mmHg 50%
17:00 +10°C° 0 mm 2 m/s 756 mmHg 56%
18:00 +8°C° 0 mm 2 m/s 756 mmHg 63%
19:00 +7°C° 0 mm 2 m/s 756 mmHg 69%
20:00 +6°C° 0 mm 2 m/s 757 mmHg 71%
21:00 +6°C° 0 mm 1 m/s 757 mmHg 74%
22:00 +6°C° 0 mm 1 m/s 757 mmHg 76%
23:00 +5°C° 0 mm 1 m/s 757 mmHg 79%

17 Abril, Sábado

Tempo Temperatura Precipitação Vento Pressão Humidade
00:00 +5°C° 0 mm 1 m/s 757 mmHg 82%
01:00 +4°C° 0 mm 1 m/s 757 mmHg 85%
02:00 +3°C° 0 mm 2 m/s 757 mmHg 87%
03:00 +3°C° 0 mm 2 m/s 756 mmHg 88%
04:00 +3°C° 0 mm 2 m/s 756 mmHg 89%
05:00 +3°C° 0 mm 3 m/s 756 mmHg 86%
06:00 +4°C° 0 mm 3 m/s 756 mmHg 83%
07:00 +5°C° 0 mm 3 m/s 756 mmHg 80%
08:00 +8°C° 0 mm 3 m/s 756 mmHg 76%
09:00 +8°C° 0 mm 4 m/s 756 mmHg 72%
10:00 +10°C° 0 mm 4 m/s 756 mmHg 69%
11:00 +11°C° 0 mm 4 m/s 756 mmHg 68%
12:00 +11°C° 0 mm 4 m/s 755 mmHg 68%
13:00 +10°C° 0 mm 5 m/s 755 mmHg 67%
14:00 +10°C° 0 mm 5 m/s 755 mmHg 69%
15:00 +9°C° 0 mm 5 m/s 754 mmHg 70%
16:00 +9°C° 0 mm 5 m/s 754 mmHg 72%
17:00 +8°C° 0 mm 5 m/s 754 mmHg 75%
18:00 +7°C° 0 mm 5 m/s 754 mmHg 79%
19:00 +6°C° 0 mm 5 m/s 754 mmHg 83%
20:00 +6°C° 0 mm 5 m/s 754 mmHg 86%
21:00 +5°C° 0 mm 5 m/s 754 mmHg 88%
22:00 +3°C° 0 mm 5 m/s 754 mmHg 90%
23:00 +3°C° 0 mm 5 m/s 753 mmHg 91%

18 Abril, Domingo

Tempo Temperatura Precipitação Vento Pressão Humidade
00:00 +3°C° 0 mm 5 m/s 753 mmHg 91%
01:00 +3°C° 0 mm 5 m/s 753 mmHg 91%
02:00 +3°C° 0 mm 5 m/s 753 mmHg 89%
03:00 +3°C° 0 mm 5 m/s 753 mmHg 87%
04:00 +5°C° 0 mm 5 m/s 752 mmHg 85%
05:00 +5°C° 0 mm 5 m/s 752 mmHg 83%
06:00 +6°C° 0 mm 5 m/s 753 mmHg 82%
07:00 +6°C° 0 mm 5 m/s 753 mmHg 80%
08:00 +7°C° 0.2 mm 5 m/s 753 mmHg 82%
09:00 +7°C° 0.2 mm 5 m/s 753 mmHg 84%
10:00 +7°C° 0.2 mm 5 m/s 753 mmHg 86%
11:00 +7°C° 1 mm 4 m/s 753 mmHg 89%
12:00 +7°C° 1 mm 4 m/s 753 mmHg 92%
13:00 +7°C° 1 mm 3 m/s 754 mmHg 95%
14:00 +7°C° 0.6 mm 3 m/s 754 mmHg 95%
15:00 +7°C° 0.6 mm 2 m/s 754 mmHg 95%
16:00 +8°C° 0.6 mm 1 m/s 754 mmHg 94%
17:00 +8°C° 0.2 mm 1 m/s 754 mmHg 95%
18:00 +8°C° 0.2 mm 1 m/s 754 mmHg 95%
19:00 +8°C° 0.2 mm 1 m/s 754 mmHg 96%
20:00 +8°C° 0.2 mm 1 m/s 754 mmHg 96%
21:00 +8°C° 0.2 mm 1 m/s 754 mmHg 96%
22:00 +8°C° 0.2 mm 1 m/s 754 mmHg 96%
23:00 +8°C° 0 mm 1 m/s 754 mmHg 95%

19 Abril, Segunda-feira

Tempo Temperatura Precipitação Vento Pressão Humidade
00:00 +8°C° 0 mm 1 m/s 754 mmHg 95%
01:00 +8°C° 0 mm 1 m/s 754 mmHg 95%
02:00 +8°C° 0 mm 1 m/s 754 mmHg 95%
03:00 +8°C° 0 mm 1 m/s 754 mmHg 95%
04:00 +8°C° 0 mm 1 m/s 753 mmHg 96%
05:00 +8°C° 0 mm 1 m/s 753 mmHg 95%
06:00 +8°C° 0 mm 1 m/s 753 mmHg 94%
07:00 +8°C° 0 mm 1 m/s 753 mmHg 93%
08:00 +8°C° 0 mm 2 m/s 753 mmHg 89%
09:00 +9°C° 0 mm 2 m/s 753 mmHg 86%
10:00 +9°C° 0 mm 2 m/s 753 mmHg 82%
11:00 +10°C° 0.1 mm 3 m/s 752 mmHg 79%
12:00 +11°C° 0.1 mm 3 m/s 752 mmHg 75%
13:00 +12°C° 0.1 mm 3 m/s 751 mmHg 72%
14:00 +12°C° 0.1 mm 3 m/s 751 mmHg 71%
15:00 +12°C° 0.1 mm 3 m/s 750 mmHg 70%
16:00 +12°C° 0.1 mm 3 m/s 750 mmHg 69%
17:00 +11°C° 0 mm 3 m/s 750 mmHg 73%
18:00 +10°C° 0 mm 3 m/s 749 mmHg 77%
19:00 +9°C° 0 mm 3 m/s 749 mmHg 81%
20:00 +8°C° 0 mm 3 m/s 749 mmHg 83%
21:00 +7°C° 0 mm 3 m/s 749 mmHg 85%
22:00 +7°C° 0 mm 3 m/s 749 mmHg 86%
23:00 +5°C° 0 mm 3 m/s 748 mmHg 87%
Mostrar mais

Necessitamos do seu Consentimento

A Meteoprog e os seus Fornecedores de Serviços podem armazenar e aceder a dados pessoais como cookies, identificadores do dispositivo ou outras tecnologias semelhantes existentes no seu dispositivo e processar estes dados para personalizar conteúdos e anúncios, assim como funcionalidades nas redes sociais e análise de tráfego.

  • Armazenar e/ou aceder a informações no seu dispositivo

    Os cookies, identificadores do dispositivo ou outras informações podem ser armazenados ou acedidos no seu dispositivo, para os fins acima indicados.

  • Anúncios e conteúdos personalizados, medição de anúncios e conteúdos, dados sobre o público-alvo e desenvolvimento de produtos

    Os anúncios e os conteúdos podem ser personalizados com base num perfil. Podem ser adicionados dados adicionais para uma maior personalização dos anúncios e dos conteúdos. A eficácia dos anúncios e dos conteúdos pode ser medida. Podem ser obtidas informações sobre o público que visualizou os anúncios e os conteúdos. Estes dados podem ser usados para desenvolver ou melhorar sistemas, softwares ou a experiência do utilizador.

Ao clicar em "Eu concordo”, permitirá o uso de cookies, identificadores do dispositivo e web beacons mencionados ou outras tecnologias semelhantes. As configurações do navegador do seu dispositivo podem ser alteradas.

Para certos fins, podem ser invocados interesses legítimos ao invés de consentimento. Pode ler mais informação sobre este assunto na nossa Política de Privacidade e Cookies.